Regional Weather Roundup
Issued by NWS

Home | Current Version | Previous Version | Graphics & Text | Print | Product List | Glossary On
Versions: 1 2 3 4 5 6 7 8 9 10 11 12 13 14 15 16 17 18 19 20 21 22 23 24 25 26 27 28 29 30 31 32 33 34 35 36 37 38 39 40 41 42 43 44 45 46 47 48 49 50
000
ASUS43 KFSD 231710
RWRSD

WEATHER ROUNDUP FOR SOUTH DAKOTA
NATIONAL WEATHER SERVICE SIOUX FALLS SD
1100 AM CST MON JAN 23 2017

NOTE: "FAIR" INDICATES FEW OR NO CLOUDS BELOW 12,000 FEET WITH NO
SIGNIFICANT WEATHER AND/OR OBSTRUCTIONS TO VISIBILITY.


SDZ001>005-009-010-012>017-231800-
NORTHWEST AND NORTH CENTRAL SOUTH DAKOTA

CITY           SKY/WX    TMP DP  RH WIND       PRES   REMARKS
BUFFALO          N/A     23  18  81 E3        29.62R
FAITH            N/A     26  24  92 E8        29.73R WCI  18
MOBRIDGE       CLOUDY    29  23  78 E7        29.76F WCI  22
$$

SDZ012>016-024>037-041>051-057-063-072>074-231800-
SOUTHWEST AND SOUTH CENTRAL SOUTH DAKOTA

CITY           SKY/WX    TMP DP  RH WIND       PRES   REMARKS
RAPID CTY ARPT CLOUDY    21  20  96 SE5       29.64F WCI  15
PIERRE         CLOUDY    27  24  89 E13       29.78F WCI  16
CUSTER         CLOUDY    32  24  72 W5        29.56F WCI  27
ELLSWORTH AFB  CLOUDY    21  21 100 SE9       29.64  WCI  11
PHILIP         CLOUDY    24  23  96 E9        29.73F WCI  14
PINE RIDGE     CLOUDY    36  31  82 NW3       29.64F
SPEARFISH      FAIR      21  19  93 SE3       29.61F
WINNER         CLOUDY    29  27  92 SE12      29.78F WCI  19
$$

SDZ004>011-016>023-039-040-231800-
NORTHEAST SOUTH DAKOTA

CITY           SKY/WX    TMP DP  RH WIND       PRES   REMARKS
ABERDEEN       CLOUDY    30  23  75 W5        29.84F WCI  25
WATERTOWN      CLOUDY    28  26  92 W6        29.82F WCI  22
BROOKINGS      CLOUDY    29  26  89 W8        29.84R WCI  21
SISSETON         N/A     32  27  81 NW10      29.84S WCI  24
$$

SDZ017-020-022-023-036>040-048>070-231800-
SOUTHEAST SOUTH DAKOTA

CITY           SKY/WX    TMP DP  RH WIND       PRES   REMARKS
SIOUX FALLS    CLOUDY    30  28  92 NW6       29.85F WCI  24
HURON          CLOUDY    30  26  85 CALM      29.86F
CHAMBERLAIN    CLOUDY    31  28  90 SE9       29.81F WCI  23
MITCHELL       CLOUDY    31  26  82 CALM      29.87S
YANKTON        CLOUDY    30  23  74 CALM      29.87F
$$

ABBREVIATIONS USED IN REMARKS
   TC - TEMPERATURE IN CELSIUS
  WCI - WIND CHILL INDEX
   HX - HEAT INDEX
  VSB - VISIBILITY




USA.gov is the U.S. government's official web portal to all federal, state and local government web resources and services.